This demonstration page uses our WeatherBlox Daily Observations layout. Learn more.

Left ArrowRight Arrow

Hourly Observations for April 1, 2015

Temp ( °F °C ) Dew Point ( °F °C ) Humidity (%) Winds ( mph kmh ) Pressure ( in mb ) Visibility ( mi km ) Precip ( " mm )
12:15 am 00:15 Clear 41 5 34 1 76 76 N 15 24 29.97 1015 10 16 N/A
12:35 am 00:35 Clear 41 5 32 undefined 70 70 N 12 19 29.97 1015 10 16 N/A
12:55 am 00:55 Clear 41 5 32 undefined 70 70 N 10 17 29.97 1015 10 16 N/A
1:15 am 01:15 Clear 41 5 32 undefined 70 70 N 7 11 29.97 1015 10 16 N/A
1:35 am 01:35 Clear 39 4 32 undefined 75 75 N 7 11 29.97 1015 10 16 N/A
1:55 am 01:55 Clear 39 4 32 undefined 75 75 N 7 11 29.97 1015 10 16 N/A
2:15 am 02:15 Clear 39 4 32 undefined 75 75 N 7 11 30.00 1016 10 16 N/A
2:35 am 02:35 Clear 37 3 32 undefined 81 81 N 6 9 30.00 1016 10 16 N/A
2:55 am 02:55 Clear 37 3 32 undefined 81 81 N N/A 30.00 1016 10 16 N/A
3:15 am 03:15 Clear 36 2 32 undefined 87 87 NNE 5 7 30.00 1016 10 16 N/A
3:35 am 03:35 Clear 37 3 32 undefined 81 81 N 5 7 30.00 1016 10 16 N/A
3:55 am 03:55 Clear 36 2 32 undefined 87 87 N N/A 30.03 1017 10 16 N/A
4:15 am 04:15 Clear 34 1 32 undefined 93 93 N N/A 30.03 1017 10 16 N/A
4:35 am 04:35 Clear 34 1 32 undefined 93 93 N N/A 30.03 1017 10 16 N/A
4:55 am 04:55 Clear 32 undefined 30 -1 93 93 NNW 3 6 30.03 1017 10 16 N/A
5:15 am 05:15 Clear 32 undefined 30 -1 93 93 NW 5 7 30.06 1018 10 16 N/A
5:35 am 05:35 Clear 32 undefined 30 -1 93 93 NW 5 7 30.06 1018 10 16 N/A
5:55 am 05:55 Clear 32 undefined 30 -1 93 93 WNW 3 6 30.06 1018 10 16 N/A
6:15 am 06:15 Clear 32 undefined 30 -1 93 93 N N/A 30.09 1019 10 16 N/A
6:35 am 06:35 Clear 28 -2 27 -3 93 93 W 8 13 30.09 1019 10 16 N/A
6:55 am 06:55 Sunny 32 undefined 32 undefined 100 100 undefined N/A 30.09 1019 10 16 N/A
7:15 am 07:15 Sunny 32 undefined 30 -1 93 93 W 5 7 30.12 1020 10 16 N/A
7:35 am 07:35 Sunny 32 undefined 30 -1 93 93 N N/A 30.15 1021 10 16 N/A
7:55 am 07:55 Sunny 34 1 32 undefined 93 93 N N/A 30.15 1021 10 16 N/A
8:15 am 08:15 Sunny 37 3 32 undefined 81 81 NW 3 6 30.15 1021 10 16 N/A
8:35 am 08:35 Sunny 41 5 32 undefined 70 70 NW 7 11 30.18 1022 10 16 N/A
8:55 am 08:55 Sunny 43 6 32 undefined 66 66 NW 9 15 30.18 1022 10 16 N/A
9:15 am 09:15 Sunny 43 6 32 undefined 66 66 WNW 12 19 30.18 1022 10 16 N/A
9:35 am 09:35 Sunny 43 6 32 undefined 66 66 NNW 6 9 30.18 1022 10 16 N/A
9:55 am 09:55 Sunny 45 7 32 undefined 61 61 NW 10 17 30.21 1023 10 16 N/A
10:55 am 10:55 Sunny 46 8 30 -1 53 53 NNW 8 13 30.21 1023 10 16 N/A
11:15 am 11:15 Sunny 46 8 30 -1 53 53 W 7 11 30.21 1023 10 16 N/A
11:35 am 11:35 Sunny 48 9 30 -1 50 50 NW 5 7 30.21 1023 10 16 N/A
11:55 am 11:55 Sunny 50 10 28 -2 43 43 NW 7 11 30.21 1023 10 16 N/A
12:15 pm 12:15 Sunny 50 10 28 -2 43 43 N 5 7 30.21 1023 10 16 N/A
12:35 pm 12:35 Sunny 50 10 30 -1 47 47 NW 9 15 30.18 1022 10 16 N/A
12:55 pm 12:55 Sunny 52 11 28 -2 41 41 N N/A 30.15 1021 10 16 N/A
1:15 pm 13:15 Sunny 52 11 30 -1 44 44 NW 8 13 30.15 1021 10 16 N/A
1:35 pm 13:35 Sunny 52 11 30 -1 44 44 NNW 5 7 30.15 1021 10 16 N/A
1:55 pm 13:55 Sunny 54 12 32 undefined 44 44 NW 10 17 30.15 1021 10 16 N/A
2:15 pm 14:15 Sunny 55 13 32 undefined 41 41 N 12 19 30.15 1021 10 16 N/A
2:35 pm 14:35 Sunny 54 12 30 -1 41 41 N N/A 30.15 1021 10 16 N/A
2:55 pm 14:55 Partly Cloudy 57 14 32 undefined 39 39 NW 7 11 30.15 1021 10 16 N/A
3:15 pm 15:15 Partly Cloudy 57 14 32 undefined 39 39 N 12 19 30.15 1021 10 16 N/A
3:35 pm 15:35 Sunny 55 13 30 -1 38 38 NW 13 20 30.15 1021 10 16 N/A
3:55 pm 15:55 Partly Cloudy 57 14 30 -1 36 36 N 13 20 30.15 1021 10 16 N/A
4:15 pm 16:15 Partly Cloudy 59 15 32 undefined 36 36 N 6 9 30.15 1021 10 16 N/A
4:35 pm 16:35 Mostly Cloudy 57 14 32 undefined 39 39 NNE 3 6 30.15 1021 10 16 N/A
4:55 pm 16:55 Mostly Cloudy 55 13 32 undefined 41 41 N 6 9 30.15 1021 10 16 N/A
5:15 pm 17:15 Partly Cloudy 59 15 32 undefined 36 36 N 6 9 30.15 1021 10 16 N/A
5:35 pm 17:35 Sunny 59 15 32 undefined 36 36 undefined N/A 30.15 1021 10 16 N/A
5:55 pm 17:55 Sunny 59 15 32 undefined 36 36 NNE 6 9 30.15 1021 10 16 N/A
6:15 pm 18:15 Sunny 57 14 32 undefined 39 39 NNW 7 11 30.15 1021 10 16 N/A
6:35 pm 18:35 Sunny 57 14 32 undefined 39 39 NE 3 6 30.15 1021 10 16 N/A
6:55 pm 18:55 Sunny 55 13 32 undefined 41 41 NE 3 6 30.15 1021 10 16 N/A
7:15 pm 19:15 Sunny 55 13 32 undefined 41 41 E 3 6 30.18 1022 10 16 N/A
7:35 pm 19:35 Clear 55 13 32 undefined 41 41 N N/A 30.18 1022 10 16 N/A
7:55 pm 19:55 Cloudy 52 11 45 7 77 77 N 12 19 29.74 1007 10 16 N/A
8:15 pm 20:15 Clear 54 12 32 undefined 44 44 ESE 5 7 30.18 1022 10 16 N/A
8:35 pm 20:35 Clear 52 11 32 undefined 47 47 N N/A 30.24 1024 10 16 N/A
8:55 pm 20:55 Clear 48 9 32 undefined 54 54 N N/A 30.24 1024 10 16 N/A
9:15 pm 21:15 Clear 45 7 32 undefined 61 61 S 3 6 30.24 1024 10 16 N/A
9:35 pm 21:35 Clear 45 7 32 undefined 61 61 N N/A 30.24 1024 10 16 N/A
9:55 pm 21:55 Clear 45 7 32 undefined 61 61 N N/A 30.27 1025 10 16 N/A
10:15 pm 22:15 Clear 43 6 32 undefined 66 66 N N/A 30.27 1025 10 16 N/A
10:35 pm 22:35 Clear 41 5 32 undefined 70 70 N N/A 30.27 1025 10 16 N/A
10:55 pm 22:55 Clear 39 4 32 undefined 75 75 N N/A 30.27 1025 10 16 N/A
11:15 pm 23:15 Clear 41 5 32 undefined 70 70 N N/A 30.27 1025 10 16 N/A
11:35 pm 23:35 Clear 39 4 32 undefined 75 75 N N/A 30.27 1025 10 16 N/A
11:55 pm 23:55 Clear 39 4 32 undefined 75 75 N N/A 30.27 1025 10 16 N/A

Powered by AerisWeather